| time (UTC) | temp C | wind direction | speed KPH | gust KPH | rain 1hr cm | rain 24hr cm | rain mn cm | humidity % | barometer mb |
| 20260510234605 | 14 | 324 | 0.0 | 0.0 | 0.00 | 1.57 | 0.00 | 95 | 1011.4 |
| 20260510234057 | 14 | 324 | 0.0 | 0.0 | 0.00 | 1.57 | 0.00 | 95 | 1011.2 |
| 20260510233552 | 14 | 324 | 0.0 | 0.0 | 0.00 | 1.57 | 0.00 | 95 | 1011.3 |
| 20260510233054 | 14 | 324 | 0.0 | 0.0 | 0.00 | 1.57 | 0.00 | 95 | 1011.3 |
| 20260510232554 | 14 | 324 | 0.0 | 1.6 | 0.00 | 1.57 | 0.00 | 95 | 1011.2 |
| 20260510231554 | 14 | 324 | 0.0 | 1.6 | 0.00 | 1.57 | 0.00 | 95 | 1011.3 |
| 20260510231055 | 14 | 325 | 0.0 | 0.0 | 0.00 | 1.57 | 0.00 | 95 | 1011.3 |
| 20260510230052 | 14 | 325 | 0.0 | 0.0 | 0.00 | 1.57 | 0.00 | 95 | 1011.1 |
| 20260510225553 | 14 | 324 | 0.0 | 0.0 | 0.00 | 1.57 | 0.00 | 95 | 1011.5 |
| 20260510225051 | 14 | 325 | 0.0 | 0.0 | 0.00 | 1.57 | 0.00 | 95 | 1011.5 |
| 20260510224553 | 13 | 325 | 0.0 | 1.6 | 0.00 | 1.57 | 0.00 | 95 | 1011.6 |
| 20260510224054 | 13 | 325 | 0.0 | 1.6 | 0.00 | 1.57 | 0.00 | 95 | 1011.6 |
| 20260510223551 | 13 | 315 | 0.0 | 3.2 | 0.00 | 1.57 | 0.00 | 95 | 1011.2 |
| 20260510222554 | 13 | 283 | 0.0 | 0.0 | 0.00 | 1.57 | 0.00 | 95 | 1011.4 |
| 20260510222053 | 13 | 283 | 0.0 | 0.0 | 0.00 | 1.57 | 0.00 | 95 | 1011.4 |
| 20260510221553 | 13 | 283 | 0.0 | 0.0 | 0.00 | 1.57 | 0.00 | 95 | 1011.5 |
| 20260510221056 | 13 | 283 | 0.0 | 0.0 | 0.00 | 1.57 | 0.00 | 95 | 1011.2 |
| 20260510220553 | 13 | 283 | 0.0 | 1.6 | 0.00 | 1.57 | 0.00 | 95 | 1011.4 |
| 20260510220051 | 13 | 283 | 0.0 | 3.2 | 0.00 | 1.57 | 0.00 | 95 | 1011.3 |
| 20260510215555 | 13 | 283 | 1.6 | 3.2 | 0.00 | 1.57 | 1.57 | 95 | 1011.2 |
| 20260510215052 | 13 | 179 | 0.0 | 0.0 | 0.00 | 1.57 | 1.57 | 95 | 1011.2 |
| 20260510214055 | 13 | 179 | 0.0 | 0.0 | 0.00 | 1.57 | 1.57 | 95 | 1011.5 |
| 20260510213551 | 13 | 179 | 0.0 | 0.0 | 0.00 | 1.57 | 1.57 | 95 | 1011.3 |
| 20260510213053 | 13 | 179 | 0.0 | 0.0 | 0.00 | 1.57 | 1.57 | 95 | 1011.5 |
| 20260510212549 | 13 | 179 | 0.0 | 0.0 | 0.00 | 1.57 | 1.57 | 95 | 1011.3 |
| 20260510212038 | 13 | 179 | 0.0 | 0.0 | 0.00 | 1.57 | 1.57 | 95 | 1011.5 |
| 20260510211538 | 13 | 179 | 0.0 | 0.0 | 0.00 | 1.57 | 1.57 | 95 | 1011.5 |
| 20260510211012 | 14 | 179 | 0.0 | 0.0 | 0.00 | 1.57 | 1.57 | 95 | 1011.4 |
| 20260510210513 | 14 | 179 | 0.0 | 0.0 | 0.00 | 1.57 | 1.57 | 95 | 1011.4 |
| 20260510210009 | 13 | 179 | 0.0 | 0.0 | 0.00 | 1.57 | 1.57 | 95 | 1011.3 |
| 20260510205504 | 13 | 179 | 0.0 | 0.0 | 0.00 | 1.57 | 1.57 | 95 | 1011.3 |
| 20260510205004 | 13 | 179 | 0.0 | 0.0 | 0.00 | 1.57 | 1.57 | 94 | 1011.5 |
| 20260510204503 | 13 | 179 | 0.0 | 0.0 | 0.00 | 1.57 | 1.57 | 94 | 1011.6 |
| 20260510204003 | 13 | 179 | 0.0 | 0.0 | 0.00 | 1.57 | 1.57 | 94 | 1011.4 |
| 20260510203504 | 13 | 239 | 0.0 | 0.0 | 0.00 | 1.57 | 1.57 | 94 | 1011.5 |
| 20260510201450 | 13 | 239 | 0.0 | 0.0 | 0.00 | 1.57 | 1.57 | 94 | 1011.4 |
| 20260510200952 | 13 | 239 | 0.0 | 0.0 | 0.00 | 1.57 | 1.57 | 94 | 1011.5 |
| 20260510200451 | 13 | 241 | 0.0 | 0.0 | 0.00 | 1.57 | 1.57 | 94 | 1011.5 |
| 20260510195951 | 13 | 242 | 0.0 | 1.6 | 0.00 | 1.57 | 1.57 | 94 | 1011.5 |
| 20260510195453 | 13 | 242 | 0.0 | 1.6 | 0.00 | 1.57 | 1.57 | 94 | 1011.4 |
| 20260510194951 | 13 | 237 | 0.0 | 1.6 | 0.00 | 1.57 | 1.57 | 94 | 1011.3 |
| 20260510194452 | 13 | 169 | 0.0 | 1.6 | 0.00 | 1.57 | 1.57 | 94 | 1011.5 |
| 20260510193949 | 13 | 170 | 1.6 | 1.6 | 0.00 | 1.57 | 1.57 | 93 | 1011.1 |
| 20260510193450 | 13 | 169 | 0.0 | 0.0 | 0.00 | 1.57 | 1.57 | 93 | 1011.2 |
| 20260510192951 | 13 | 167 | 0.0 | 0.0 | 0.00 | 1.57 | 1.57 | 92 | 1011.1 |
| 20260510192452 | 13 | 167 | 0.0 | 0.0 | 0.00 | 1.57 | 1.57 | 92 | 1011.5 |
| 20260510191951 | 14 | 168 | 0.0 | 0.0 | 0.00 | 1.57 | 1.57 | 91 | 1011.2 |
| 20260510191453 | 14 | 168 | 0.0 | 0.0 | 0.00 | 1.57 | 1.57 | 91 | 1011.1 |
| 20260510190950 | 15 | 168 | 0.0 | 0.0 | 0.00 | 1.57 | 1.57 | 90 | 1010.9 |
| 20260510190449 | 15 | 168 | 0.0 | 1.6 | 0.00 | 1.57 | 1.57 | 90 | 1011.1 |
| 20260510185954 | 15 | 167 | 0.0 | 1.6 | 0.00 | 1.57 | 1.57 | 90 | 1011.0 |
| 20260510185450 | 15 | 192 | 0.0 | 1.6 | 0.00 | 1.57 | 1.57 | 90 | 1010.8 |
| 20260510184453 | 15 | 135 | 0.0 | 0.0 | 0.00 | 1.57 | 1.57 | 89 | 1010.6 |
| 20260510183952 | 15 | 128 | 0.0 | 1.6 | 0.00 | 1.57 | 1.57 | 89 | 1010.8 |
| 20260510183452 | 15 | 128 | 0.0 | 1.6 | 0.00 | 1.57 | 1.57 | 89 | 1010.9 |
| 20260510182437 | 16 | 128 | 0.0 | 1.6 | 0.00 | 1.57 | 1.57 | 88 | 1010.7 |
| 20260510181938 | 16 | 128 | 0.0 | 6.4 | 0.00 | 1.57 | 1.57 | 87 | 1010.7 |
| 20260510181412 | 16 | 128 | 0.0 | 6.4 | 0.00 | 1.57 | 1.57 | 86 | 1010.5 |
| 20260510180912 | 16 | 145 | 0.0 | 1.6 | 0.00 | 1.57 | 1.57 | 86 | 1010.7 |
| 20260510175904 | 16 | 207 | 0.0 | 1.6 | 0.00 | 1.57 | 1.57 | 86 | 1010.6 |
| 20260510175403 | 16 | 160 | 0.0 | 6.4 | 0.00 | 1.57 | 1.57 | 87 | 1010.7 |
| 20260510174850 | 17 | 115 | 3.2 | 6.4 | 0.00 | 1.57 | 1.57 | 86 | 1010.6 |
| 20260510174348 | 17 | 235 | 1.6 | 4.8 | 0.00 | 1.57 | 1.57 | 86 | 1010.5 |
| 20260510173849 | 17 | 146 | 0.0 | 0.0 | 0.00 | 1.57 | 1.57 | 87 | 1010.4 |
| 20260510172337 | 17 | 146 | 0.0 | 3.2 | 0.00 | 1.57 | 1.57 | 84 | 1010.3 |
| 20260510171825 | 17 | 164 | 0.0 | 0.0 | 0.00 | 1.57 | 1.57 | 83 | 1010.4 |
| 20260510171328 | 17 | 164 | 0.0 | 0.0 | 0.00 | 1.57 | 1.57 | 82 | 1010.5 |
| 20260510170827 | 17 | 164 | 0.0 | 0.0 | 0.00 | 1.57 | 1.57 | 82 | 1010.5 |
| 20260510170302 | 17 | 164 | 0.0 | 0.0 | 0.00 | 1.57 | 1.57 | 84 | 1010.6 |
| 20260510165802 | 17 | 164 | 0.0 | 0.0 | 0.00 | 1.57 | 1.57 | 85 | 1010.5 |
| 20260510165305 | 17 | 164 | 0.0 | 0.0 | 0.00 | 1.57 | 1.57 | 85 | 1010.6 |
| 20260510164802 | 17 | 164 | 0.0 | 0.0 | 0.00 | 1.57 | 1.57 | 85 | 1010.7 |
| 20260510164303 | 17 | 164 | 0.0 | 1.6 | 0.00 | 1.57 | 1.57 | 84 | 1010.7 |
| 20260510163803 | 17 | 165 | 0.0 | 1.6 | 0.00 | 1.57 | 1.57 | 84 | 1010.6 |
| 20260510163302 | 17 | 195 | 0.0 | 0.0 | 0.00 | 1.57 | 1.57 | 84 | 1010.7 |
| 20260510162803 | 17 | 195 | 0.0 | 0.0 | 0.00 | 1.57 | 1.57 | 84 | 1010.8 |
| 20260510162306 | 17 | 195 | 0.0 | 0.0 | 0.00 | 1.57 | 1.57 | 85 | 1010.6 |
| 20260510161804 | 17 | 195 | 0.0 | 0.0 | 0.00 | 1.57 | 1.57 | 84 | 1010.7 |
| 20260510161302 | 17 | 195 | 0.0 | 0.0 | 0.00 | 1.57 | 1.57 | 83 | 1010.9 |
| 20260510160805 | 17 | 195 | 0.0 | 0.0 | 0.00 | 1.57 | 1.57 | 83 | 1010.8 |
| 20260510155801 | 17 | 195 | 0.0 | 0.0 | 0.00 | 1.57 | 1.57 | 83 | 1011.0 |
| 20260510155300 | 17 | 195 | 0.0 | 0.0 | 0.00 | 1.57 | 1.57 | 86 | 1010.9 |
| 20260510154802 | 17 | 195 | 0.0 | 0.0 | 0.00 | 1.57 | 1.57 | 84 | 1011.1 |
| 20260510153803 | 17 | 194 | 0.0 | 0.0 | 0.00 | 1.57 | 1.57 | 85 | 1011.0 |
| 20260510153302 | 17 | 194 | 0.0 | 0.0 | 0.00 | 1.57 | 1.57 | 85 | 1011.2 |
| 20260510152802 | 17 | 194 | 0.0 | 0.0 | 0.00 | 1.57 | 1.57 | 85 | 1011.1 |
| 20260510151803 | 17 | 195 | 0.0 | 0.0 | 0.00 | 1.57 | 1.57 | 84 | 1011.2 |
| 20260510150804 | 17 | 195 | 0.0 | 0.0 | 0.00 | 1.57 | 1.57 | 87 | 1011.3 |
| 20260510150253 | 17 | 195 | 0.0 | 0.0 | 0.00 | 1.57 | 1.57 | 86 | 1011.2 |
| 20260510145238 | 17 | 195 | 0.0 | 0.0 | 0.00 | 1.57 | 1.57 | 87 | 1011.1 |
| 20260510144736 | 17 | 195 | 0.0 | 0.0 | 0.00 | 1.57 | 1.57 | 86 | 1011.3 |
| 20260510144225 | 17 | 195 | 0.0 | 0.0 | 0.00 | 1.57 | 1.57 | 87 | 1011.3 |
| 20260510143723 | 17 | 195 | 0.0 | 1.6 | 0.00 | 1.57 | 1.57 | 86 | 1011.4 |
| 20260510143224 | 17 | 195 | 0.0 | 1.6 | 0.00 | 1.57 | 1.57 | 86 | 1011.3 |
| 20260510142712 | 17 | 200 | 0.0 | 1.6 | 0.00 | 1.57 | 1.57 | 84 | 1011.3 |
| 20260510142214 | 17 | 200 | 0.0 | 0.0 | 0.00 | 1.57 | 1.57 | 84 | 1011.6 |
| 20260510141715 | 17 | 200 | 0.0 | 0.0 | 0.00 | 1.57 | 1.57 | 85 | 1011.5 |
| 20260510141201 | 17 | 199 | 0.0 | 1.6 | 0.00 | 1.57 | 1.57 | 86 | 1011.6 |
| 20260510140703 | 17 | 200 | 0.0 | 1.6 | 0.00 | 1.57 | 1.57 | 86 | 1011.4 |
| 20260510140201 | 17 | 204 | 0.0 | 1.6 | 0.00 | 1.57 | 1.57 | 83 | 1011.5 |
| 20260510135651 | 17 | 234 | 0.0 | 1.6 | 0.03 | 1.57 | 1.57 | 83 | 1011.5 |
| 20260510135149 | 17 | 223 | 0.0 | 1.6 | 0.03 | 1.57 | 1.57 | 84 | 1011.6 |
| 20260510134652 | 18 | 240 | 0.0 | 1.6 | 0.03 | 1.57 | 1.57 | 86 | 1011.3 |
| 20260510134151 | 17 | 244 | 0.0 | 1.6 | 0.03 | 1.57 | 1.57 | 86 | 1011.7 |
| 20260510133648 | 17 | 237 | 0.0 | 1.6 | 0.05 | 1.57 | 1.57 | 85 | 1011.6 |
| 20260510133148 | 17 | 253 | 0.0 | 1.6 | 0.05 | 1.57 | 1.57 | 88 | 1011.9 |
| 20260510132643 | 17 | 266 | 0.0 | 1.6 | 0.05 | 1.57 | 1.57 | 90 | 1011.8 |
| 20260510131643 | 17 | 270 | 0.0 | 0.0 | 0.05 | 1.57 | 1.57 | 91 | 1011.7 |
| 20260510131151 | 17 | 276 | 0.0 | 1.6 | 0.08 | 1.57 | 1.57 | 93 | 1011.8 |
| 20260510130646 | 17 | 279 | 0.0 | 3.2 | 0.08 | 1.57 | 1.57 | 94 | 1011.8 |
| 20260510130145 | 16 | 280 | 1.6 | 3.2 | 0.08 | 1.57 | 1.57 | 93 | 1011.7 |
| 20260510125646 | 16 | 144 | 0.0 | 1.6 | 0.05 | 1.55 | 1.55 | 92 | 1011.8 |
| 20260510125146 | 16 | 144 | 0.0 | 1.6 | 0.08 | 1.55 | 1.55 | 93 | 1012.0 |
| 20260510124644 | 16 | 147 | 0.0 | 0.0 | 0.08 | 1.55 | 1.55 | 92 | 1012.0 |
| 20260510124145 | 16 | 147 | 0.0 | 0.0 | 0.10 | 1.55 | 1.55 | 93 | 1012.1 |
| 20260510122643 | 15 | 148 | 0.0 | 0.0 | 0.23 | 1.52 | 1.52 | 93 | 1012.5 |
| 20260510122159 | 15 | 148 | 0.0 | 0.0 | 0.30 | 1.52 | 1.52 | 93 | 1012.6 |
| 20260510121644 | 15 | 145 | 0.0 | 0.0 | 0.33 | 1.52 | 1.52 | 94 | 1012.6 |
| 20260510121143 | 15 | 145 | 0.0 | 0.0 | 0.36 | 1.50 | 1.50 | 94 | 1012.7 |
| 20260510120646 | 15 | 144 | 0.0 | 1.6 | 0.43 | 1.50 | 1.50 | 94 | 1012.7 |
| 20260510120145 | 15 | 144 | 0.0 | 1.6 | 0.48 | 1.50 | 1.50 | 94 | 1012.9 |
| 20260510115643 | 15 | 144 | 0.0 | 0.0 | 0.53 | 1.50 | 1.50 | 94 | 1012.7 |
| 20260510115143 | 15 | 144 | 0.0 | 0.0 | 0.51 | 1.47 | 1.47 | 94 | 1012.9 |
| 20260510114644 | 15 | 144 | 0.0 | 0.0 | 0.51 | 1.47 | 1.47 | 94 | 1012.6 |
| 20260510114144 | 15 | 144 | 0.0 | 0.0 | 0.51 | 1.45 | 1.45 | 94 | 1012.8 |
| 20260510113644 | 15 | 144 | 0.0 | 0.0 | 0.53 | 1.42 | 1.42 | 93 | 1012.7 |
| 20260510112644 | 15 | 144 | 0.0 | 1.6 | 0.48 | 1.30 | 1.30 | 93 | 1013.1 |
| 20260510112145 | 15 | 144 | 0.0 | 0.0 | 0.41 | 1.22 | 1.24 | 93 | 1013.1 |
| 20260510111142 | 15 | 142 | 1.6 | 1.6 | 0.36 | 1.14 | 1.14 | 92 | 1013.4 |
| 20260510110645 | 15 | 194 | 0.0 | 1.6 | 0.28 | 1.07 | 1.09 | 93 | 1013.5 |
| 20260510110142 | 15 | 197 | 0.0 | 1.6 | 0.23 | 1.02 | 1.04 | 92 | 1013.2 |
| 20260510105132 | 15 | 214 | 0.0 | 1.6 | 0.18 | 0.97 | 0.97 | 93 | 1013.6 |
| 20260510104631 | 15 | 181 | 0.0 | 0.0 | 0.18 | 0.97 | 0.97 | 93 | 1013.3 |
| 20260510104130 | 15 | 172 | 0.0 | 0.0 | 0.18 | 0.94 | 0.94 | 93 | 1013.4 |
| 20260510103121 | 15 | 146 | 0.0 | 1.6 | 0.10 | 0.84 | 0.84 | 93 | 1013.1 |
| 20260510102621 | 15 | 124 | 0.0 | 1.6 | 0.10 | 0.81 | 0.81 | 92 | 1013.0 |
| 20260510102108 | 15 | 112 | 0.0 | 1.6 | 0.13 | 0.81 | 0.81 | 93 | 1013.1 |
| 20260510101609 | 15 | 112 | 0.0 | 1.6 | 0.18 | 0.79 | 0.79 | 93 | 1013.3 |
| 20260510101108 | 15 | 112 | 0.0 | 1.6 | 0.23 | 0.79 | 0.79 | 93 | 1013.4 |
| 20260510100612 | 15 | 312 | 0.0 | 0.0 | 0.28 | 0.79 | 0.79 | 93 | 1013.0 |
| 20260510100056 | 15 | 312 | 0.0 | 1.6 | 0.36 | 0.79 | 0.79 | 93 | 1013.0 |
| 20260510095601 | 15 | 313 | 0.0 | 1.6 | 0.41 | 0.79 | 0.79 | 93 | 1012.9 |
| 20260510094601 | 15 | 312 | 0.0 | 1.6 | 0.51 | 0.79 | 0.79 | 94 | 1013.0 |
| 20260510094059 | 15 | 312 | 0.0 | 0.0 | 0.53 | 0.76 | 0.79 | 94 | 1012.8 |
| 20260510093557 | 15 | 312 | 0.0 | 0.0 | 0.64 | 0.76 | 0.76 | 94 | 1012.7 |
| 20260510093055 | 15 | 313 | 0.0 | 0.0 | 0.61 | 0.74 | 0.74 | 94 | 1012.6 |
| 20260510092049 | 14 | 314 | 0.0 | 1.6 | 0.56 | 0.69 | 0.69 | 93 | 1012.5 |
| 20260510091549 | 14 | 306 | 0.0 | 4.8 | 0.51 | 0.61 | 0.61 | 93 | 1012.7 |
| 20260510091045 | 14 | 306 | 1.6 | 6.4 | 0.46 | 0.56 | 0.56 | 93 | 1012.7 |
| 20260510090545 | 14 | 318 | 0.0 | 6.4 | 0.41 | 0.51 | 0.51 | 92 | 1013.0 |
| 20260510090044 | 14 | 84 | 0.0 | 3.2 | 0.33 | 0.43 | 0.43 | 92 | 1013.4 |
| 20260510085544 | 15 | 133 | 1.6 | 3.2 | 0.28 | 0.38 | 0.38 | 91 | 1013.7 |
| 20260510085044 | 15 | 112 | 0.0 | 3.2 | 0.23 | 0.33 | 0.33 | 90 | 1013.9 |
| 20260510084544 | 15 | 141 | 0.0 | 1.6 | 0.18 | 0.28 | 0.28 | 89 | 1013.9 |
| 20260510084044 | 15 | 122 | 0.0 | 1.6 | 0.10 | 0.20 | 0.20 | 88 | 1014.0 |
| 20260510083543 | 15 | 50 | 0.0 | 0.0 | 0.03 | 0.13 | 0.13 | 88 | 1014.1 |
| 20260510083045 | 16 | 50 | 0.0 | 0.0 | 0.03 | 0.13 | 0.13 | 87 | 1014.1 |
| 20260510082545 | 16 | 50 | 0.0 | 0.0 | 0.03 | 0.13 | 0.13 | 87 | 1013.9 |
| 20260510081545 | 16 | 50 | 0.0 | 0.0 | 0.00 | 0.10 | 0.10 | 86 | 1013.9 |
| 20260510080544 | 16 | 50 | 0.0 | 0.0 | 0.00 | 0.10 | 0.10 | 86 | 1013.3 |
| 20260510080046 | 16 | 50 | 0.0 | 0.0 | 0.00 | 0.10 | 0.10 | 87 | 1013.4 |
| 20260510075544 | 16 | 50 | 0.0 | 1.6 | 0.00 | 0.10 | 0.10 | 87 | 1013.3 |
| 20260510075045 | 16 | 50 | 0.0 | 1.6 | 0.00 | 0.10 | 0.10 | 86 | 1013.0 |
| 20260510074544 | 16 | 42 | 0.0 | 0.0 | 0.00 | 0.10 | 0.10 | 86 | 1013.0 |
| 20260510073544 | 16 | 43 | 0.0 | 0.0 | 0.00 | 0.10 | 0.10 | 85 | 1012.9 |
| 20260510073045 | 16 | 43 | 0.0 | 0.0 | 0.00 | 0.10 | 0.10 | 84 | 1013.0 |
| 20260510072542 | 16 | 44 | 0.0 | 1.6 | 0.00 | 0.10 | 0.10 | 86 | 1013.0 |
| 20260510072043 | 16 | 41 | 0.0 | 1.6 | 0.00 | 0.10 | 0.10 | 86 | 1012.9 |
| 20260510071542 | 16 | 44 | 0.0 | 1.6 | 0.00 | 0.10 | 0.10 | 85 | 1013.0 |
| 20260510071043 | 16 | 44 | 0.0 | 1.6 | 0.00 | 0.10 | 0.10 | 87 | 1013.1 |
| 20260510070543 | 15 | 50 | 0.0 | 1.6 | 0.00 | 0.10 | 0.10 | 88 | 1013.1 |
| 20260510070045 | 15 | 44 | 0.0 | 1.6 | 0.00 | 0.10 | 0.10 | 90 | 1013.3 |
| 20260510065531 | 15 | 44 | 0.0 | 1.6 | 0.00 | 0.10 | 0.10 | 91 | 1013.3 |
| 20260510065031 | 15 | 45 | 0.0 | 1.6 | 0.00 | 0.10 | 0.10 | 91 | 1013.2 |
| 20260510064031 | 15 | 29 | 0.0 | 1.6 | 0.00 | 0.10 | 0.10 | 89 | 1013.0 |
| 20260510063531 | 15 | 32 | 0.0 | 1.6 | 0.00 | 0.10 | 0.10 | 89 | 1012.9 |
| 20260510062032 | 15 | 21 | 0.0 | 1.6 | 0.00 | 0.10 | 0.10 | 87 | 1012.7 |
| 20260510061531 | 15 | 21 | 0.0 | 1.6 | 0.00 | 0.10 | 0.10 | 88 | 1013.0 |
| 20260510061032 | 15 | 21 | 0.0 | 1.6 | 0.00 | 0.10 | 0.10 | 88 | 1012.8 |
| 20260510060532 | 15 | 22 | 0.0 | 1.6 | 0.00 | 0.10 | 0.10 | 88 | 1012.8 |
| 20260510060031 | 15 | 21 | 0.0 | 1.6 | 0.00 | 0.10 | 0.10 | 88 | 1013.0 |
| 20260510055518 | 14 | 11 | 0.0 | 3.2 | 0.00 | 0.10 | 0.10 | 90 | 1013.1 |
| 20260510055019 | 14 | 352 | 0.0 | 3.2 | 0.00 | 0.10 | 0.10 | 91 | 1012.9 |
| 20260510054519 | 14 | 325 | 0.0 | 1.6 | 0.00 | 0.10 | 0.10 | 92 | 1013.2 |
| 20260510054020 | 14 | 325 | 0.0 | 1.6 | 0.00 | 0.10 | 0.10 | 92 | 1013.1 |
| 20260510053510 | 14 | 325 | 0.0 | 0.0 | 0.00 | 0.10 | 0.10 | 92 | 1013.1 |
| 20260510053008 | 14 | 325 | 0.0 | 0.0 | 0.00 | 0.10 | 0.10 | 92 | 1013.2 |
| 20260510052508 | 14 | 326 | 0.0 | 0.0 | 0.00 | 0.10 | 0.10 | 92 | 1013.1 |
| 20260510052008 | 14 | 326 | 0.0 | 0.0 | 0.00 | 0.10 | 0.10 | 93 | 1013.0 |
| 20260510051509 | 14 | 326 | 0.0 | 0.0 | 0.00 | 0.10 | 0.10 | 92 | 1013.0 |
| 20260510051008 | 14 | 326 | 0.0 | 0.0 | 0.00 | 0.10 | 0.10 | 92 | 1013.0 |
| 20260510050508 | 14 | 326 | 0.0 | 0.0 | 0.03 | 0.10 | 0.10 | 92 | 1013.2 |
| 20260510045958 | 14 | 325 | 0.0 | 0.0 | 0.03 | 0.10 | 0.10 | 92 | 1013.2 |
| 20260510045457 | 14 | 325 | 0.0 | 0.0 | 0.05 | 0.10 | 0.10 | 92 | 1013.1 |
| 20260510044457 | 14 | 324 | 0.0 | 1.6 | 0.08 | 0.10 | 0.10 | 92 | 1012.8 |
| 20260510043958 | 14 | 324 | 0.0 | 1.6 | 0.10 | 0.10 | 0.10 | 92 | 1012.7 |
| 20260510043459 | 14 | 325 | 0.0 | 0.0 | 0.10 | 0.10 | 0.10 | 92 | 1012.7 |
| 20260510042958 | 14 | 325 | 0.0 | 0.0 | 0.10 | 0.10 | 0.10 | 92 | 1012.7 |
| 20260510042457 | 14 | 325 | 0.0 | 1.6 | 0.10 | 0.10 | 0.10 | 92 | 1012.9 |
| 20260510041958 | 14 | 326 | 0.0 | 1.6 | 0.10 | 0.10 | 0.10 | 91 | 1012.7 |
| 20260510041456 | 14 | 299 | 0.0 | 1.6 | 0.10 | 0.10 | 0.10 | 92 | 1012.9 |
| 20260510040958 | 14 | 304 | 0.0 | 1.6 | 0.10 | 0.10 | 0.10 | 92 | 1013.0 |
| 20260510040459 | 14 | 7 | 0.0 | 1.6 | 0.08 | 0.08 | 0.08 | 92 | 1012.9 |
| 20260510035958 | 14 | 340 | 0.0 | 1.6 | 0.08 | 0.08 | 0.08 | 92 | 1013.0 |
| 20260510035456 | 14 | 302 | 0.0 | 1.6 | 0.05 | 0.05 | 0.05 | 92 | 1013.2 |
| 20260510034442 | 14 | 303 | 0.0 | 0.0 | 0.03 | 0.03 | 0.03 | 92 | 1013.2 |
| 20260510033945 | 14 | 303 | 0.0 | 0.0 | 0.00 | 0.00 | 0.00 | 92 | 1013.1 |
| 20260510033443 | 14 | 303 | 0.0 | 0.0 | 0.00 | 0.00 | 0.00 | 92 | 1013.0 |
| 20260510032943 | 13 | 303 | 0.0 | 0.0 | 0.00 | 0.00 | 0.00 | 92 | 1013.1 |
| 20260510032443 | 13 | 303 | 0.0 | 0.0 | 0.00 | 0.00 | 0.00 | 92 | 1013.1 |
| 20260510031943 | 13 | 303 | 0.0 | 0.0 | 0.00 | 0.00 | 0.00 | 92 | 1013.0 |
| 20260510031443 | 13 | 303 | 0.0 | 0.0 | 0.00 | 0.00 | 0.00 | 91 | 1013.0 |
| 20260510030943 | 13 | 303 | 0.0 | 0.0 | 0.00 | 0.00 | 0.00 | 91 | 1013.1 |
| 20260510025943 | 13 | 303 | 0.0 | 0.0 | 0.00 | 0.00 | 0.00 | 91 | 1013.0 |
| 20260510025444 | 13 | 303 | 0.0 | 0.0 | 0.00 | 0.00 | 0.00 | 91 | 1013.2 |
| 20260510024943 | 13 | 303 | 0.0 | 0.0 | 0.00 | 0.00 | 0.00 | 91 | 1013.2 |
| 20260510024442 | 13 | 303 | 0.0 | 1.6 | 0.00 | 0.00 | 0.00 | 91 | 1013.2 |
| 20260510023943 | 13 | 303 | 0.0 | 3.2 | 0.00 | 0.00 | 0.00 | 91 | 1013.2 |
| 20260510023444 | 13 | 303 | 0.0 | 3.2 | 0.00 | 0.00 | 0.00 | 91 | 1013.4 |
| 20260510022943 | 13 | 303 | 0.0 | 0.0 | 0.00 | 0.00 | 0.00 | 91 | 1013.4 |
| 20260510022442 | 13 | 303 | 0.0 | 0.0 | 0.00 | 0.00 | 0.00 | 91 | 1013.6 |
| 20260510021943 | 13 | 303 | 0.0 | 0.0 | 0.00 | 0.00 | 0.00 | 91 | 1013.7 |
| 20260510021443 | 13 | 303 | 0.0 | 0.0 | 0.00 | 0.00 | 0.00 | 91 | 1013.7 |
| 20260510020431 | 13 | 303 | 0.0 | 0.0 | 0.00 | 0.00 | 0.00 | 90 | 1013.9 |
| 20260510015416 | 13 | 303 | 0.0 | 0.0 | 0.00 | 0.00 | 0.00 | 90 | 1013.9 |
| 20260510014917 | 13 | 303 | 0.0 | 0.0 | 0.00 | 0.00 | 0.00 | 90 | 1013.9 |
| 20260510014419 | 13 | 303 | 0.0 | 0.0 | 0.00 | 0.00 | 0.00 | 89 | 1014.0 |
| 20260510013406 | 13 | 303 | 0.0 | 0.0 | 0.00 | 0.00 | 0.00 | 89 | 1013.8 |
| 20260510012904 | 13 | 303 | 0.0 | 0.0 | 0.00 | 0.00 | 0.00 | 88 | 1013.9 |
| 20260510012404 | 14 | 303 | 0.0 | 0.0 | 0.00 | 0.00 | 0.00 | 88 | 1013.7 |
| 20260510011908 | 14 | 303 | 0.0 | 0.0 | 0.00 | 0.00 | 0.00 | 88 | 1013.9 |
| 20260510011404 | 14 | 303 | 0.0 | 0.0 | 0.00 | 0.00 | 0.00 | 88 | 1013.9 |
| 20260510010905 | 14 | 303 | 0.0 | 1.6 | 0.00 | 0.00 | 0.00 | 88 | 1013.8 |
| 20260510010406 | 14 | 303 | 0.0 | 1.6 | 0.00 | 0.00 | 0.00 | 88 | 1013.9 |
| 20260510005905 | 13 | 303 | 1.6 | 1.6 | 0.00 | 0.00 | 0.00 | 88 | 1013.8 |
| 20260510005404 | 13 | 303 | 0.0 | 0.0 | 0.00 | 0.00 | 0.00 | 89 | 1014.0 |
| 20260510004904 | 13 | 303 | 0.0 | 0.0 | 0.00 | 0.00 | 0.00 | 89 | 1013.7 |
| 20260510004404 | 13 | 303 | 0.0 | 0.0 | 0.00 | 0.00 | 0.00 | 89 | 1013.8 |
| 20260510003905 | 13 | 303 | 0.0 | 0.0 | 0.00 | 0.00 | 0.00 | 89 | 1014.0 |
| 20260510003406 | 13 | 303 | 0.0 | 0.0 | 0.00 | 0.00 | 0.00 | 89 | 1013.9 |
| 20260510002905 | 13 | 303 | 0.0 | 4.8 | 0.00 | 0.00 | 0.00 | 88 | 1013.8 |
| 20260510002354 | 13 | 303 | 0.0 | 4.8 | 0.00 | 0.00 | 0.00 | 88 | 1014.0 |
| 20260510001853 | 13 | 306 | 1.6 | 3.2 | 0.00 | 0.00 | 0.00 | 89 | 1013.8 |
| 20260510000853 | 13 | 359 | 0.0 | 1.6 | 0.00 | 0.00 | 0.00 | 89 | 1014.1 |
| 20260510000356 | 13 | 359 | 0.0 | 1.6 | 0.00 | 0.00 | 0.00 | 89 | 1014.0 |
| 20260509235852 | 13 | 358 | 0.0 | 1.6 | 0.00 | 0.00 | 0.00 | 89 | 1014.1 |
| 20260509235354 | 13 | 358 | 0.0 | 0.0 | 0.00 | 0.00 | 0.00 | 87 | 1014.1 |
| 20260509234853 | 13 | 359 | 0.0 | 0.0 | 0.00 | 0.00 | 0.00 | 87 | 1014.3 |